Regional Weather Roundup
Issued by NWS Wakefield, VA

Home | Current Version | Previous Version | Graphics & Text | Print | Product List | Glossary Off
Versions: 1 2 3 4 5 6 7 8 9 10 11 12 13 14 15 16 17 18 19 20 21 22 23 24 25 26 27 28 29 30 31 32 33 34 35 36 37 38 39 40 41 42 43 44 45 46 47 48 49 50

000
ASUS41 KAKQ 260410
RWRAKQ

REGIONAL WEATHER ROUNDUP
NATIONAL WEATHER SERVICE WAKEFIELD VA
1100 PM EST TUE NOV 25 2014

Note: "fair" indicates few or no clouds below 12,000 feet with no
significant weather and/or obstructions to visibility. * = Denotes
station may not report precipitation (e.g., rain,snow,etc.),
thunder or fog.

VAZ042-051-052>054-056-260500-
NORTHERN VIRGINIA

CITY           SKY/WX    TMP DP  RH WIND       PRES   REMARKS
WASH NATIONAL  CLOUDY    51  35  54 CALM      30.17R
DULLES         CLOUDY    44  36  73 CALM      30.15R
FORT BELVOIR   CLOUDY    45  38  76 NW1       30.16R
QUANTICO       CLOUDY    47  40  76 CALM      30.16R
FREDERICKSBRG* CLOUDY    48  41  76 SE3       30.14S
STAFFORD*      CLOUDY    46  38  74 CALM      30.18R
WARRENTON      CLOUDY    44  43  99 CALM      30.14R
CULPEPER*      CLOUDY    43  41  93 CALM      30.15R
MANASSAS*      CLOUDY    43  43 100 CALM      30.15R
LEESBURG*      CLOUDY    41  37  87 CALM      30.16R
WINCHESTER     CLOUDY    43  30  61 CALM      30.13R
FRONT ROYAL*   CLOUDY    39  32  75 CALM      30.13R
LURAY*         CLOUDY    41  36  81 CALM      30.14R
$$

VAZ048-049-060>072-079>083-260500-
CENTRAL AND SOUTH CENTRAL VIRGINIA

CITY           SKY/WX    TMP DP  RH WIND       PRES   REMARKS
RICHMOND       LGT RAIN  53  38  56 CALM      30.14S
CHESTERFIELD*  CLOUDY    52  34  50 NE3       30.14F
PETERSBURG*    LGT RAIN  51  46  81 CALM      30.13S
HANOVER        CLOUDY    50  39  66 CALM      30.15F
TAPPAHANNOCK*  CLOUDY    49  39  69 CALM      30.15S
QUINTON*       CLOUDY    49  42  77 E5        30.13F
CHARLOTTSVILLE CLOUDY    46  33  60 NW3       30.12R
GORDONSVILLE*  CLOUDY    44  39  83 CALM      30.12F
ORANGE*        CLOUDY    45  41  87 CALM      30.14S
LOUISA*        CLOUDY    48  39  71 E3        30.11F
BUMPASS*       CLOUDY    49  39  67 CALM      30.12F
FARMVILLE*     DRIZZLE   50  42  73 CALM      30.10S
CREWE*         CLOUDY    48  41  76 CALM      30.12S
FORT PICKETT*  CLOUDY    50  46  87 CALM      30.12S
CHASE CITY*    CLOUDY    51  47  87 E3        30.10S
CLARKSVILLE*   CLOUDY    46  45  93 CALM      30.10S
SOUTH HILL*    CLOUDY    49  48  96 CALM      30.16F
LAWRENCEVILLE* CLOUDY    49  49  98 CALM      30.10F
$$

VAZ088>098-260500-
SOUTHEAST VIRGINIA

CITY           SKY/WX    TMP DP  RH WIND       PRES   REMARKS
NORFOLK        LGT RAIN  53  49  86 NE7       30.11F
VIRGINIA BEACH LGT RAIN  55  51  86 NE5       30.12F
NORFOLK NAVAL  LGT RAIN  54  49  83 NE6       30.14S
WEST POINT*    CLOUDY    51  42  72 CALM      30.15F
SALUDA*        CLOUDY    50  41  71 CALM      30.14F
NEWPORT NEWS   LGT RAIN  53  48  83 NE6       30.13F
LANGLEY AFB    LGT RAIN  51  51 100 NE8       30.13F FOG
FORT EUSTIS    LGT RAIN  50  48  92 N3        30.12F
WILLIAMSBURG*  CLOUDY    52  46  82 CALM      30.13F
HR EXEC AP*    CLOUDY    52  48  87 NE6       30.14F
FRANKLIN*      CLOUDY    50  48  93 E6        30.12F
WAKEFIELD      LGT RAIN  49  46  90 CALM      30.12F
$$

VAZ020-022-025-037-045-260500-
WEST CENTRAL AND SOUTHWEST VIRGINIA

CITY           SKY/WX    TMP DP  RH WIND       PRES   REMARKS
STAUNTON*      CLOUDY    40  33  76 CALM      30.14R
WAYNESBORO*    CLOUDY    43  29  59 NW5       30.11R
HOT SPRINGS VA CLOUDY    40  21  46 CALM      30.05F
LYNCHBURG      CLOUDY    45  35  68 CALM      30.11S
DANVILLE       LGT RAIN  49  42  77 N3        30.09S
SOUTH BOSTON*  CLOUDY    46  44  93 CALM      30.10F
MARTINSVILLE   LGT RAIN  44  41  89 CALM      30.13R
ROANOKE        CLOUDY    45  32  60 CALM      30.12S
BLACKSBURG     CLOUDY    43  34  70 CALM      30.11F
DUBLIN*        CLOUDY    40  35  80 CALM      30.10S
MARION*        CLOUDY    40  31  71 CALM      30.09F
HILLSVILLE*    CLOUDY    42  27  54 NE3       30.08S
RICHLANDS*     CLOUDY    46  24  41 NE5       30.06F
WISE*          CLOUDY    43  23  45 CALM      30.09F
ABINGDON*      CLOUDY    44  31  60 E6        30.06F
$$

MDZ021>025-VAZ099-100-260500-
SOUTHERN MARYLAND AND THE DELMARVA PENINSULA

CITY           SKY/WX    TMP DP  RH WIND       PRES   REMARKS
PATUXENT RIVER CLOUDY    47  42  83 CALM      30.16S
BAY BRIDGE APT   N/A     46  37  71 CALM      30.15F
LEONARDTOWN    CLOUDY    46  37  71 CALM      30.17S
DOVER          CLOUDY    46  39  76 N2        30.13F
GEORGETOWN     CLOUDY    47  41  80 CALM      30.18R
EASTON         CLOUDY    47  42  80 CALM      30.18F
CAMBRIDGE      CLOUDY    46  43  87 SE5       30.16R
SALISBURY      CLOUDY    50  41  71 CALM      30.16F
OCEAN CITY     CLOUDY    48  43  82 CALM      30.17S
WALLOPS ISLAND LGT RAIN  51  45  79 NE5       30.16F
ACCOMACK*      DRIZZLE   50  45  81 NE3       30.15F
$$

NCZ012>017-030>032-260500-
NORTH CENTRAL AND EASTERN NORTH CAROLINA

CITY           SKY/WX    TMP DP  RH WIND       PRES   REMARKS
ROANOKE RAPIDS RAIN      48  46  93 CALM      30.09F
RALEIGH        LGT RAIN  48  45  87 CALM      30.07F
ELIZABETH CITY RAIN      57  53  86 N6        30.10F FOG
AHOSKIE*       LGT RAIN  49  47  96 N5        30.10F
EDENTON*       RAIN      53  52  97 NE5       30.08F
CURRITUCK*     RAIN      55  53  92 NE3       30.11F
KILL DEVIL HLS DRIZZLE   58  58  99 CALM      30.07F
MANTEO         DRIZZLE   57  56  99 N8        30.08F
CAPE HATTERAS  LGT RAIN  57  57 100 NE7       30.06R FOG
TARBORO*       DRIZZLE   53  51  95 N6        30.08F
GOLDSBORO      CLOUDY    54  53  98 CALM      30.02F
WASHINGTON     CLOUDY    56  55  97 NE6       30.07F
GREENVILLE     CLOUDY    54  54 100 NE3       30.07F
NEW BERN       LGT RAIN  61  58  90 E7        30.05F FOG
WILMINGTON     RAIN      63  62  97 E6        30.00F FOG
$$

VAZ048-260500-
ELSEWHERE

CITY           SKY/WX    TMP DP  RH WIND       PRES   REMARKS
HARRISBURG PA  CLOUDY    38  31  76 CALM      30.15R
BALTIMORE      CLOUDY    44  35  70 CALM      30.15S
ANNAPOLIS      CLOUDY    46  40  79 CALM      30.15F
ANDREWS AFB    CLOUDY    46  37  69 SW2       30.16R
PHILADELPHIA   CLOUDY    48  34  58 S3        30.18R
WILDWOOD NJ*   CLOUDY    45  37  76 CALM      30.16R
HENDERSON NC   LGT RAIN  47  45  90 CALM      30.09F
GREENSBORO     LGT RAIN  49  42  77 NE5       30.08R
ROCKY MOUNT    LGT RAIN  52  51  97 N7        30.07F
$$

VAZ100-260500-
MARINE

STATION/POSITION TIME  TEMP    WIND        PRES    WAVE   SWELL
                       AIR SEA DIR/SP/G            HT/PER HT/PER
                 (UTC) (F)     (DEG/KT/KT) (MB)    (FT/S) (FT/S)
CAPE MAY NJ      0400   48 52  100/  1/  1 1021.5R
LEWES DE         0400   49 51  160/  2/  3 1021.6R
15NM E FENWICK I 0400   54 55              1021.6R   4/ 8
OCEAN-CITY-INLET 0400   51 50  360/  2/  2 1021.5F
WACHAPREAGUE VA  0400   52 53   10/  5/  6 1020.9F
THOMAS POINT MD  0400   49 48  150/  3/  3 1022.1F
GOOSES REEF MD   0400   48        CALM     1021.3F
COVE POINT MD    0400   50     120/  3/  4 1020.9S
SOLOMONS ISLAND  0400      50                N/A
BISHOPS HEAD MD  0400   48 49   70/  3/  4 1020.6F
PINEY POINT MD   0400          110/  4/  5   N/A
POTOMAC MD       0400   50     110/  4/  4 1020.3F
CAMBRIDGE MD     0400   48 45  120/  2/  2 1020.8F
LEWISETTA VA     0400   50 50   70/  4/  4 1020.3F
RAPPAHANNOCK LGT 0400           20/  7/  8 1021.3F
STINGRAY PT      0400   50      40/  4/  6 1021.2F
YORK RVR RNG VA  0400   51      70/  8/  8 1019.7F
YORKTOWN VA      0400   51 52   10/  6/  7 1020.1F
JAMESTOWN VA     0400   50     110/  2/  4   N/A
DOMINION TERM VA 0400   52      70/  7/ 10 1020.0F
KIPTOPEKE VA     0400      56   80/  7/  9   N/A
CHES BAY BRIDGE  0400   53 52   30/  9/ 11 1019.7R
CAPE HENRY VA    0400   53      40/ 10/ 11 1018.8R
CHESAPEAKE LGHT  0300   56      50/ 13/ 14 1020.4R
WILLOUBY STN VA  0400   52      60/  7/  9 1018.7S
S CRANEY ISL VA  0400           20/  6/  8 1019.7F
CAPE HENRY BUOY  0400      57                N/A     4/ 9
1ST LANDING BUOY 0400   54      40/ 10/ 12 1019.7R
CAPE CHARLES BUO 0400      55                N/A     3/ 8   3/ 8
64NM E OF VA BCH 0400   62 65   50/  8/ 10 1018.3F   4/ 9   5/ 9
DUCK PIER NC     0400   58 58   40/ 10/ 11 1018.0F
44100 DUCK FRF   0400      59                N/A     4/ 8   2/11
44056 DUCK FRF   0400      58                N/A     3/ 8   2/11
OREGON INLET NC  0400   59 58   10/ 11/ 13 1017.5F
HATTERAS NC      0400   57 62   30/  7/ 10 1018.4R
DIAMOND SHLS NC  0400   68      CALM  /  4 1017.8R   5/ 9   5/ 9
CAPE LOOKOUT NC  0300   62      30/ 11/ 13 1016.9F
$$


USA.gov is the U.S. government's official web portal to all federal, state and local government web resources and services.